User: anonymous   Login
Location: Caltech
(34.1382°N, 118.1253°W)
Time: 23:21:59
(UTC-08:00)
Language:

Cosmos 2219 - Orbit

View from above orbital plane
View from above orbital plane
View from above satellite
View from above satellite

Ground track
Ground track

The orbit data is extracted from the following two-line orbital elements,

1 22219U 92076A   14332.55305437 -.00000034  00000-0  70258-5 0  6649
2 22219 071.0584 343.6630 0017937 004.0617 142.3905 14.13502390136566
Epoch (UTC): 28 November 2014 13:16:23
Eccentricity: 0.0017937
inclination: 71.0584°
perigee height: 834 km
apogee height: 860 km
right ascension of ascending node: 343.6630°
argument of perigee: 4.0617°
revolutions per day: 14.13502390
mean anomaly at epoch: 142.3905°
orbit number at epoch: 13656

The dashed part of the orbit path shows where the satellite is in the earth's shadow,  

DLR